JIELONG 3 R/B, 62586

Orbit data source: Space-Track

JIELONG 3 R/B, 62586 is space debris in LEO originally from a launch on Mon, 13 Jan 2025 UTC launched from the Yellow Sea Launch Area, China (YSLA). Debris objects in space refer to the collection of defunct objects orbiting the Earth. Examples of debris include non-operational satellites, rocket bodies, and fragments generated from explosions, collisions, or faulty payload assembly.

Not visible in the next 10 days
JIELONG 3 R/B details
Identifier
62586, 2025-007M
Orbit
LEO
Last TLE update18 hours ago
Origin
Flag of CNChangzheng H. (CN / PRC)
ManufacturerChangzheng H.
MissionSpacecraft
Bus & MotorUnknown
Mass500 kg wet, 500 kg dry
Launch date (UTC)
2025-01-13 (1 month ago)
Launch vehicleUnknown
Launch site
Yellow Sea Launch Area, China (YSLA)
Object type
Payload
Rocket body
Debris
Shape & HBRUnknown
Radar Cross SectionLarge (>1 m²)

Expand to show TLE details & history

TLE from 18 hours ago
0 JIELONG 3 R/B
1 62586U 25007M   25046.77725722  .01053340  10790-4  10956-2 0  9997
2 62586  54.9337 331.0168 0180403  88.3896 273.7806 15.85030639  5255
Epoch: 2025-02-15T18:39Z
Definitive object data (Epoch: 2025-02-15T18:39:15.023Z)
Latitude-0.00009°
Longitude-94.81566°
Altitude311.563 km
Speed7.726 km/s
True Right ascension22h 04m 04s
True Declination0° 00' 00"
Sunlit
Object was in daylight at TLE epoch
Visualization TLE readout
Latitude-15.20441°
Longitude-109.39661°
Altitude352.207 km
Speed7.677 km/s
Apparent Right ascension23h 42m 30s
Apparent Declination-37° 04' 49"
Sunlit
Object is in daylight
Visualization observer readout
Local Sidereal Time15:30:13
Azimuth105.317° ESE
Elevation-46.118°
Doppler factor1
Orbital elements
Apogee altitude436.978 km
Perigee altitude195.442 km
Semi-major axis6,694.347 km
Eccentricity0.0180403
Inclination54.9337°
RAAN331.0168°
Arg. of periapsis88.3896°
True anomaly271.71521°
Mean anomaly273.7806°
Eccentric anomaly272.74816°
Mean motion3.96261 °/min
BSTAR0.0010956
Orbital period90.85 mins
Loading maneuver chart data...
Loading historical data...
Loading historical data...
Loading historical data...
Loading historical data...
Loading historical data...
Loading historical data...
Loading historical data...

JIELONG 3 R/B Visibility forecast

Observer location: undefined°, undefined

JIELONG 3 R/B is not visible in the next 10 days
Span
Click to sort rows by Start time (UTC) header in descending order
Start Az.
Max El. time (UTC)
Max El. Az.
Max El.
End time (UTC)
End Az.
|